Retour au catalogue

STARLINK-31981

ActifCommunicationsVLEO
NORAD 60035·PAYLOAD·🇺🇸 United States

Lancé Jun 8, 2024 depuis Cape Canaveral Space Force Station

Loading…

Prochains Passages (prochaines 24 heures)

TLE

FraisSource: CelesTrak SupGP

Époque: Sep 15, 2026, 02:14 UTC

1 60035C 24111V   26258.09354167  .00006518  00000+0  19256-3 0  2584
2 60035  53.1571 274.8159 0001189  89.3597  25.6359 15.34390923    14

Suivez STARLINK-31981 en temps réel avec AllMySat

Download on the App Store